Flag for U.S.A. Weather past 2 weeks in Paradise, California, U.S.A.

Now
57 °F

Passing clouds.


Feels Like: 56 °F
Forecast: 54 / 76 °F
Wind: 6 mph from Northwest

Location: Chico Municipal

Current Time: Mar 29, 2015 at 9:28:44 AM

Latest Report: Mar 29, 2015 at 8:53 AM


Visibility: 80 mi

Pressure: 30.10 "Hg

Humidity: 51%

Dew point: 39 °F

Location of ParadiseLocation

Historic Weather in Paradise — Graph

°F

Paradise temperature yesterday

Maximum temperature yesterday: 82 °F (at 2:58 PM)
Minimum temperature yesterday: 54 °F (at 6:35 AM)
Average temperature yesterday: 64 °F

Past Weeks' High & Low Weather Summary

 TemperatureHumidityPressure
High84 °F (Mar 27, 2:54 PM)100% (Mar 17, 1:55 AM)30.28 "Hg (Mar 17, 1:55 AM)
Low45 °F (Mar 19, 5:15 AM)14% (Mar 28, 3:58 PM)29.94 "Hg (Mar 18, 6:55 PM)
Average60 °F58%30.09 "Hg
* Reported Mar 14 7:57 AM — Mar 29 7:53 AM, Paradise, Weather by CustomWeather, © 2015

Note: Actual official high and low records may vary slightly from our data, if they occured in-between our weather recording intervals... More about our weather records

Advertising

Paradise weather history for previous 24 hours

 ConditionsComfort  
Time TempWeatherWind HumidityBarometerVisibility
7:53 AM
Sun, Mar 29
52 °FPartly cloudy.No wind50%30.09 "Hg80 mi
6:48 AM50 °FPassing clouds.No wind54%30.07 "Hg40 mi
6:35 AM50 °FClear.No wind54%30.07 "Hg10 mi
6:15 AM50 °FClear.No wind58%30.07 "Hg10 mi
5:55 AM46 °FClear.No wind66%30.06 "Hg10 mi
5:35 AM50 °FClear.No wind58%30.06 "Hg10 mi
5:15 AM50 °FClear.No wind58%30.06 "Hg10 mi
4:55 AM50 °FClear.No wind58%30.06 "Hg10 mi
4:35 AM52 °FClear.No wind54%30.06 "Hg10 mi
4:15 AM52 °FClear.No wind54%30.06 "Hg10 mi
3:55 AM54 °FClear.No wind51%30.06 "Hg10 mi
3:35 AM50 °FClear.No wind58%30.06 "Hg10 mi
3:15 AM54 °FClear.No wind51%30.06 "Hg10 mi
2:55 AM54 °FClear.No wind51%30.06 "Hg10 mi
2:35 AM55 °FClear.No wind47%30.06 "Hg10 mi
2:15 AM55 °FClear.No wind47%30.07 "Hg10 mi
1:55 AM55 °FClear.No wind47%30.07 "Hg10 mi
1:15 AM57 °FClear.No wind44%30.07 "Hg10 mi
12:55 AM57 °FClear.6 mph41%30.07 "Hg10 mi
12:35 AM59 °FClear.7 mph39%30.07 "Hg10 mi
12:15 AM59 °FClear.No wind39%30.07 "Hg10 mi
11:55 PM
Sat, Mar 28
59 °FClear.No wind42%30.07 "Hg10 mi
11:35 PM61 °FClear.No wind34%30.07 "Hg10 mi
11:15 PM61 °FClear.9 mph34%30.06 "Hg10 mi
10:55 PM57 °FClear.12 mph41%30.06 "Hg10 mi
10:35 PM59 °FClear.12 mph39%30.06 "Hg10 mi
10:15 PM57 °FClear.7 mph41%30.06 "Hg10 mi
9:55 PM63 °FClear.5 mph32%30.05 "Hg10 mi
9:35 PM63 °FClear.5 mph32%30.05 "Hg10 mi
8:55 PM64 °FClear.No wind30%30.04 "Hg10 mi
8:15 PM66 °FSunny.8 mph30%30.04 "Hg10 mi
7:55 PM68 °FSunny.10 mph26%30.04 "Hg10 mi
7:35 PM72 °FSunny.9 mph23%30.04 "Hg10 mi
7:15 PM73 °FSunny.9 mph22%30.04 "Hg10 mi
6:55 PM77 °FSunny.12 mph18%30.04 "Hg10 mi
5:50 PM81 °FPartly sunny.17 mph14%30.05 "Hg80 mi
4:58 PM81 °FPartly sunny.9 mph15%30.05 "Hg80 mi
3:58 PM82 °FScattered clouds.9 mph14%30.06 "Hg80 mi
2:58 PM82 °FScattered clouds.17 mph15%30.09 "Hg80 mi
1:49 PM81 °FPassing clouds.17 mph16%30.12 "Hg80 mi
12:49 PM77 °FPassing clouds.10 mph19%30.15 "Hg80 mi
11:49 AM73 °FPassing clouds.17 mph29%30.17 "Hg80 mi
10:58 AM68 °FPassing clouds.12 mph33%30.19 "Hg80 mi
9:52 AM64 °FPassing clouds.18 mph37%30.12 "Hg80 mi
Weather by CustomWeather, © 2015

See weather overviewHow to use our weather pages